FW6253 Weather Reports


Display with metric or nautical units.
time (UTC)temp
F
wind
direction
speed
MPH
gust
MPH
rain 1hr
in
rain 24hr
in
rain mn
in
humidity
%
barometer
mb
20260507194555 65 336 3.0 10.0 0.00 0.00 0.00 78 1015.0
20260507194101 65 349 2.0 12.0 0.00 0.00 0.00 79 1015.2
20260507193552 65 75 3.0 12.0 0.00 0.00 0.00 79 1015.6
20260507193055 65 34 2.0 8.0 0.00 0.00 0.00 81 1015.8
20260507192553 64 56 2.0 5.0 0.00 0.00 0.00 83 1015.6
20260507192052 64 14 1.0 10.0 0.00 0.00 0.00 83 1015.9
20260507191554 64 334 1.0 12.0 0.00 0.00 0.00 84 1015.6
20260507191055 63 56 1.0 12.0 0.00 0.00 0.00 84 1015.2
20260507190559 63 360 3.0 11.0 0.00 0.00 0.00 85 1015.1
20260507190106 63 52 3.0 12.0 0.00 0.00 0.00 85 1015.1
20260507185554 62 55 3.0 12.0 0.00 0.00 0.00 85 1015.0
20260507185057 62 69 4.0 11.0 0.00 0.00 0.00 86 1015.4
20260507184604 62 64 4.0 11.0 0.00 0.00 0.00 86 1015.5
20260507184055 62 60 1.0 9.0 0.00 0.00 0.00 88 1015.7
20260507183554 61 65 2.0 9.0 0.00 0.00 0.00 87 1015.9
20260507183101 61 53 1.0 7.0 0.00 0.00 0.00 87 1016.2
20260507182555 61 59 0.0 6.0 0.00 0.00 0.00 87 1016.4
20260507182055 61 90 1.0 6.0 0.00 0.00 0.00 85 1016.5
20260507181600 62 78 2.0 9.0 0.00 0.00 0.00 84 1016.7
20260507181055 62 13 2.0 9.0 0.00 0.00 0.00 81 1016.7
20260507180558 63 0 1.0 5.0 0.00 0.00 0.00 80 1016.5
20260507180054 63 61 1.0 5.0 0.00 0.00 0.00 80 1016.8
20260507175554 64 0 1.0 6.0 0.00 0.00 0.00 79 1016.8
20260507175054 64 0 2.0 8.0 0.00 0.00 0.00 79 1016.8
20260507174552 64 0 2.0 9.0 0.00 0.00 0.00 79 1016.6
20260507174054 64 5 2.0 9.0 0.00 0.00 0.00 79 1016.5
20260507173555 64 51 3.0 9.0 0.00 0.00 0.00 78 1016.5
20260507173101 64 24 3.0 10.0 0.00 0.00 0.00 79 1016.5
20260507172554 64 63 3.0 10.0 0.00 0.00 0.00 79 1016.5
20260507172054 64 58 2.0 10.0 0.00 0.00 0.00 79 1016.6
20260507171557 63 11 3.0 12.0 0.00 0.00 0.00 80 1016.6
20260507171054 63 42 3.0 12.0 0.00 0.00 0.00 81 1016.6
20260507170555 62 57 2.0 11.0 0.00 0.00 0.00 82 1016.7
20260507170056 62 11 4.0 11.0 0.00 0.00 0.00 82 1016.5
20260507165554 61 51 2.0 16.0 0.00 0.00 0.00 83 1016.8
20260507165057 61 57 2.0 16.0 0.00 0.00 0.00 84 1016.6
20260507164553 60 59 3.0 16.0 0.00 0.00 0.00 84 1016.6
20260507164055 60 42 3.0 12.0 0.00 0.00 0.00 84 1016.7
20260507163556 60 5 2.0 12.0 0.00 0.00 0.00 85 1016.8
20260507163053 60 51 3.0 11.0 0.00 0.00 0.00 85 1016.8
20260507162554 60 33 2.0 9.0 0.00 0.00 0.00 85 1016.8
20260507162053 60 49 3.0 9.0 0.00 0.00 0.00 85 1016.5
20260507161601 60 43 3.0 9.0 0.00 0.00 0.00 84 1016.7
20260507161054 60 346 2.0 9.0 0.00 0.00 0.00 85 1016.8
20260507160554 60 0 3.0 13.0 0.00 0.00 0.00 84 1016.7
20260507160053 60 71 4.0 13.0 0.00 0.00 0.00 85 1016.6
20260507155554 59 40 4.0 14.0 0.00 0.00 0.00 85 1016.4
20260507155054 59 65 4.0 14.0 0.00 0.00 0.00 85 1016.5
20260507154555 59 355 3.0 14.0 0.00 0.00 0.00 85 1016.5
20260507154054 59 69 4.0 14.0 0.00 0.00 0.00 85 1016.5
20260507153555 59 62 4.0 14.0 0.00 0.00 0.00 85 1016.4
20260507153059 59 55 3.0 13.0 0.00 0.00 0.00 85 1016.4
20260507152558 59 111 4.0 13.0 0.00 0.00 0.00 85 1016.4
20260507152055 59 52 4.0 16.0 0.00 0.00 0.00 86 1016.3
20260507151559 59 76 4.0 16.0 0.00 0.00 0.00 86 1016.2
20260507151054 59 39 4.0 16.0 0.00 0.00 0.00 86 1016.3
20260507150556 59 343 4.0 14.0 0.00 0.00 0.00 87 1016.3
20260507150058 59 319 4.0 14.0 0.00 0.00 0.00 87 1016.3
20260507145556 58 51 4.0 15.0 0.00 0.00 0.00 88 1016.2
20260507145053 58 94 3.0 15.0 0.00 0.00 0.00 88 1016.1
20260507144555 58 360 3.0 11.0 0.00 0.00 0.00 89 1016.1
20260507144054 58 54 4.0 11.0 0.00 0.00 0.00 89 1016.0
20260507143553 58 24 5.0 11.0 0.00 0.00 0.00 90 1015.9
20260507143105 58 34 3.0 11.0 0.00 0.00 0.00 90 1015.8
20260507142553 58 0 2.0 10.0 0.00 0.00 0.00 90 1016.1
20260507142053 58 26 3.0 12.0 0.00 0.00 0.00 90 1016.3
20260507141557 58 89 1.0 12.0 0.00 0.00 0.00 90 1016.6
20260507141053 58 9 4.0 12.0 0.00 0.00 0.00 90 1016.5
20260507140553 58 35 2.0 12.0 0.00 0.00 0.00 90 1016.6
20260507140109 58 54 3.0 17.0 0.00 0.00 0.00 90 1016.3
20260507135553 58 45 3.0 17.0 0.00 0.00 0.00 90 1016.3
20260507135056 58 9 4.0 15.0 0.00 0.00 0.00 90 1016.1
20260507134551 58 78 3.0 11.0 0.00 0.00 0.00 90 1016.3
20260507134053 59 109 3.0 10.0 0.00 0.00 0.00 89 1016.3
20260507133553 58 74 2.0 10.0 0.00 0.00 0.00 89 1016.1
20260507133054 58 22 2.0 10.0 0.00 0.00 0.00 89 1016.5
20260507132553 58 48 3.0 10.0 0.00 0.00 0.00 88 1016.7
20260507132053 58 17 3.0 9.0 0.00 0.00 0.00 88 1016.4
20260507131603 59 109 2.0 10.0 0.00 0.00 0.00 88 1016.3
20260507131054 59 84 2.0 12.0 0.00 0.00 0.00 87 1016.4
20260507130553 59 69 3.0 12.0 0.00 0.00 0.00 87 1016.1
20260507130055 59 45 3.0 12.0 0.00 0.00 0.00 87 1016.2
20260507125554 59 44 3.0 11.0 0.00 0.00 0.00 87 1016.2
20260507125053 59 9 3.0 11.0 0.00 0.00 0.00 86 1016.0
20260507124556 59 5 2.0 11.0 0.00 0.00 0.00 86 1016.3
20260507124052 59 360 3.0 11.0 0.00 0.00 0.00 86 1016.0
20260507123552 59 55 3.0 11.0 0.00 0.00 0.00 86 1016.2
20260507123057 59 360 1.0 11.0 0.00 0.00 0.00 86 1015.7
20260507122553 59 80 3.0 11.0 0.00 0.00 0.00 85 1015.5
20260507122053 59 74 2.0 12.0 0.00 0.00 0.00 85 1015.7
20260507121556 60 40 3.0 12.0 0.00 0.00 0.00 85 1015.4
20260507121054 60 30 3.0 14.0 0.00 0.00 0.00 85 1015.4
20260507120552 60 5 3.0 14.0 0.00 0.00 0.00 85 1015.3
20260507120059 60 21 3.0 14.0 0.00 0.00 0.00 85 1015.3
20260507115552 60 43 3.0 13.0 0.00 0.00 0.00 84 1015.0
20260507115052 60 74 2.0 13.0 0.00 0.00 0.00 84 1015.0
20260507114553 60 360 2.0 12.0 0.00 0.00 0.00 84 1014.9
20260507114053 60 5 3.0 12.0 0.00 0.00 0.00 84 1015.0
20260507113551 60 160 1.0 12.0 0.00 0.00 0.00 84 1014.8
20260507113053 60 5 2.0 14.0 0.00 0.00 0.00 84 1014.7
20260507112555 60 351 4.0 14.0 0.00 0.00 0.00 84 1014.5
20260507112052 60 23 4.0 11.0 0.00 0.00 0.00 84 1014.4
20260507111551 60 350 3.0 10.0 0.00 0.00 0.00 83 1014.4
20260507111052 61 5 2.0 10.0 0.00 0.00 0.00 83 1014.3
20260507110552 61 81 1.0 10.0 0.00 0.00 0.00 83 1014.3
20260507110058 61 25 3.0 9.0 0.00 0.00 0.00 83 1014.4
20260507105553 61 63 2.0 9.0 0.00 0.00 0.00 83 1014.3
20260507105056 61 34 3.0 11.0 0.00 0.00 0.00 83 1014.3
20260507104555 61 331 2.0 11.0 0.00 0.00 0.00 83 1014.2
20260507104052 61 18 1.0 8.0 0.00 0.00 0.00 83 1014.4
20260507103554 61 34 2.0 10.0 0.00 0.00 0.00 83 1014.4
20260507103055 61 26 2.0 10.0 0.00 0.00 0.00 83 1014.5
20260507102554 61 12 1.0 9.0 0.00 0.00 0.00 84 1014.5
20260507102054 61 67 3.0 8.0 0.00 0.00 0.00 84 1014.4
20260507101605 61 360 2.0 8.0 0.00 0.00 0.00 84 1014.3
20260507101052 61 0 1.0 10.0 0.00 0.00 0.00 84 1014.2
20260507100555 61 49 3.0 10.0 0.00 0.00 0.00 83 1014.2
20260507100053 61 30 1.0 9.0 0.00 0.00 0.00 83 1014.3
20260507095553 61 74 2.0 9.0 0.00 0.00 0.00 83 1014.0
20260507095053 61 47 2.0 8.0 0.00 0.00 0.00 83 1014.3
20260507094600 61 350 1.0 6.0 0.00 0.00 0.00 83 1014.4
20260507094057 61 59 1.0 8.0 0.00 0.00 0.00 83 1014.3
20260507093552 61 18 2.0 8.0 0.00 0.00 0.00 83 1014.1
20260507093053 61 43 1.0 8.0 0.00 0.00 0.00 83 1014.1
20260507092553 61 73 2.0 9.0 0.00 0.00 0.00 83 1014.1
20260507092054 61 0 2.0 11.0 0.00 0.00 0.00 83 1014.2
20260507091601 61 42 3.0 11.0 0.00 0.00 0.00 83 1014.2
20260507091053 61 346 2.0 8.0 0.00 0.00 0.00 83 1014.1
20260507090552 61 346 2.0 9.0 0.00 0.00 0.00 83 1014.1
20260507090110 61 348 3.0 10.0 0.00 0.00 0.00 83 1014.1
20260507085557 61 0 2.0 10.0 0.00 0.00 0.00 83 1014.3
20260507085054 61 34 2.0 10.0 0.00 0.00 0.00 83 1014.2
20260507084550 61 0 3.0 10.0 0.00 0.00 0.00 83 1014.3
20260507084052 61 28 2.0 8.0 0.00 0.00 0.00 84 1014.3
20260507083552 61 44 1.0 8.0 0.00 0.00 0.00 84 1014.0
20260507083059 61 47 2.0 8.0 0.00 0.00 0.00 84 1014.1
20260507082552 61 338 2.0 7.0 0.00 0.00 0.00 84 1014.3
20260507082052 62 0 2.0 7.0 0.00 0.00 0.00 84 1014.4
20260507081558 62 38 1.0 7.0 0.00 0.00 0.00 84 1014.4
20260507081052 62 0 1.0 7.0 0.00 0.00 0.00 84 1014.3
20260507080552 62 49 1.0 9.0 0.00 0.00 0.00 84 1014.2
20260507080056 62 71 1.0 9.0 0.00 0.00 0.00 84 1014.1
20260507075554 62 53 1.0 9.0 0.00 0.00 0.00 84 1014.0
20260507075053 62 71 2.0 8.0 0.00 0.00 0.00 84 1014.2
20260507074555 62 63 0.0 6.0 0.00 0.00 0.00 84 1014.3
20260507074054 62 36 0.0 5.0 0.00 0.00 0.00 84 1014.4
20260507073553 62 57 1.0 6.0 0.00 0.00 0.00 84 1014.4
20260507073103 62 0 0.0 6.0 0.00 0.00 0.00 84 1014.3
20260507072554 62 0 2.0 5.0 0.00 0.00 0.00 84 1014.3
20260507072055 62 0 2.0 6.0 0.00 0.00 0.00 84 1014.4
20260507071553 62 51 0.0 6.0 0.00 0.00 0.00 84 1014.4
20260507071053 62 34 1.0 6.0 0.00 0.00 0.00 84 1014.2
20260507070553 62 0 1.0 5.0 0.00 0.00 0.00 84 1014.3
20260507070138 62 38 0.0 5.0 0.00 0.00 0.00 84 1014.3
20260507065556 62 56 1.0 9.0 0.00 0.00 0.00 84 1014.1
20260507065052 62 49 1.0 9.0 0.00 0.00 0.00 84 1014.1
20260507064556 62 65 1.0 8.0 0.00 0.00 0.00 85 1014.3
20260507064052 62 31 1.0 8.0 0.00 0.00 0.00 85 1014.3
20260507063553 62 0 3.0 6.0 0.00 0.00 0.00 85 1014.1
20260507063053 62 53 2.0 5.0 0.00 0.00 0.00 85 1014.4
20260507062552 62 60 1.0 6.0 0.00 0.00 0.00 85 1014.3
20260507062057 62 32 1.0 6.0 0.00 0.00 0.00 85 1014.3
20260507061552 62 66 1.0 5.0 0.00 0.00 0.00 84 1014.2
20260507061054 62 50 2.0 7.0 0.00 0.00 0.00 85 1014.0
20260507060552 62 0 2.0 7.0 0.00 0.00 0.00 85 1014.0
20260507060056 62 55 2.0 9.0 0.00 0.00 0.00 84 1014.0
20260507055553 62 24 1.0 9.0 0.00 0.00 0.00 85 1014.1
20260507055054 62 50 2.0 9.0 0.00 0.00 0.00 85 1014.0
20260507054557 62 42 2.0 9.0 0.00 0.00 0.00 84 1014.0
20260507054052 62 29 2.0 8.0 0.00 0.00 0.00 84 1013.7
20260507053552 62 41 1.0 9.0 0.00 0.00 0.00 84 1013.6
20260507053055 62 59 2.0 9.0 0.00 0.00 0.00 84 1013.6
20260507052553 62 5 3.0 13.0 0.00 0.00 0.00 84 1013.1
20260507052053 62 50 3.0 13.0 0.00 0.00 0.00 84 1013.1
20260507051559 62 53 3.0 12.0 0.00 0.00 0.00 84 1013.2
20260507051053 62 108 1.0 12.0 0.00 0.00 0.00 84 1013.1
20260507050552 62 341 1.0 11.0 0.00 0.00 0.00 84 1013.5
20260507050103 62 338 4.0 10.0 0.00 0.00 0.00 84 1013.5
20260507045553 62 61 2.0 8.0 0.00 0.00 0.00 84 1013.4
20260507045056 62 19 3.0 8.0 0.00 0.00 0.00 84 1013.6
20260507044605 63 59 1.0 9.0 0.00 0.00 0.00 84 1013.7
20260507044053 63 9 2.0 9.0 0.00 0.00 0.00 84 1013.9
20260507043553 63 40 2.0 10.0 0.00 0.00 0.00 84 1013.8
20260507043056 63 44 1.0 10.0 0.00 0.00 0.00 84 1013.8
20260507042554 63 40 2.0 10.0 0.00 0.00 0.00 84 1013.6
20260507042053 63 0 2.0 10.0 0.00 0.00 0.00 84 1013.5
20260507041553 63 350 2.0 9.0 0.00 0.00 0.00 84 1013.5
20260507041053 63 18 1.0 10.0 0.00 0.00 0.00 84 1013.4
20260507040557 63 0 2.0 10.0 0.00 0.00 0.00 84 1013.2
20260507040057 63 86 2.0 9.0 0.00 0.00 0.00 84 1012.9
20260507035552 63 44 2.0 9.0 0.00 0.00 0.00 84 1012.9
20260507035055 63 10 1.0 9.0 0.00 0.00 0.00 84 1012.7
20260507034559 63 5 2.0 9.0 0.00 0.00 0.00 84 1012.7
20260507034053 63 11 2.0 9.0 0.00 0.00 0.00 84 1012.5
20260507033553 63 0 2.0 9.0 0.00 0.00 0.00 84 1012.9
20260507033054 63 48 1.0 9.0 0.00 0.00 0.00 84 1012.5
20260507032554 63 56 1.0 8.0 0.00 0.00 0.00 84 1012.7
20260507032053 63 0 2.0 8.0 0.00 0.00 0.00 84 1012.8
20260507031557 63 30 1.0 10.0 0.00 0.00 0.00 84 1012.7
20260507031055 63 67 2.0 13.0 0.00 0.00 0.00 84 1012.6
20260507030553 63 27 3.0 13.0 0.00 0.00 0.00 83 1012.8
20260507030111 63 0 2.0 14.0 0.00 0.00 0.00 83 1012.8
20260507025553 63 78 2.0 14.0 0.00 0.00 0.00 84 1012.8
20260507025052 63 0 3.0 14.0 0.00 0.00 0.00 84 1012.7
20260507024550 63 44 2.0 12.0 0.00 0.00 0.00 84 1012.6
20260507024057 63 138 1.0 9.0 0.00 0.00 0.00 84 1012.6
20260507023556 63 12 2.0 9.0 0.00 0.00 0.00 83 1012.6
20260507023051 63 69 1.0 8.0 0.00 0.00 0.00 83 1012.6
20260507022553 63 11 1.0 9.0 0.00 0.00 0.00 83 1012.6
20260507022054 63 337 1.0 9.0 0.00 0.00 0.00 83 1012.6
20260507021614 63 65 3.0 9.0 0.00 0.00 0.00 83 1012.8
20260507021054 63 15 1.0 9.0 0.00 0.00 0.00 83 1012.5
20260507020553 63 64 2.0 12.0 0.00 0.00 0.00 83 1012.3
20260507015553 64 46 3.0 13.0 0.00 0.00 0.00 82 1011.9
20260507015054 64 46 4.0 12.0 0.00 0.00 0.00 82 1011.5
20260507014611 64 49 2.0 9.0 0.00 0.00 0.00 82 1011.7
20260507014052 64 0 2.0 9.0 0.00 0.00 0.00 82 1011.7
20260507013552 64 74 3.0 9.0 0.00 0.00 0.00 82 1011.6
20260507013055 64 15 1.0 9.0 0.00 0.00 0.00 82 1011.7
20260507012558 64 0 1.0 9.0 0.00 0.00 0.00 82 1011.8
20260507012053 65 14 2.0 9.0 0.00 0.00 0.00 81 1011.8
20260507011551 65 51 1.0 10.0 0.00 0.00 0.00 81 1011.7
20260507011055 65 38 2.0 10.0 0.00 0.00 0.00 81 1011.5
20260507010557 65 360 2.0 10.0 0.00 0.00 0.00 81 1011.3
20260507010105 65 42 2.0 9.0 0.00 0.00 0.00 81 1011.4
20260507005553 65 330 2.0 11.0 0.00 0.00 0.00 80 1011.2
20260507005054 66 319 2.0 11.0 0.00 0.00 0.00 80 1011.2
20260507004554 66 0 3.0 11.0 0.00 0.00 0.00 80 1011.2
20260507004049 66 55 3.0 11.0 0.00 0.00 0.00 80 1010.9
20260507003553 66 38 3.0 10.0 0.00 0.00 0.00 80 1011.1
20260507003056 67 5 3.0 10.0 0.00 0.00 0.00 80 1011.2
20260507002552 67 9 2.0 10.0 0.00 0.00 0.00 79 1011.2
20260507002053 67 347 1.0 11.0 0.00 0.00 0.00 79 1011.1
20260507001605 67 5 3.0 11.0 0.00 0.00 0.00 79 1011.1
20260507001052 67 355 2.0 11.0 0.00 0.00 0.00 79 1011.0
20260507000552 68 14 4.0 11.0 0.00 0.00 0.00 79 1010.9
20260507000053 68 53 2.0 11.0 0.00 0.00 0.00 78 1010.8
20260506235554 68 71 1.0 11.0 0.00 0.00 0.00 78 1010.7
20260506235049 68 22 3.0 11.0 0.00 0.00 0.00 78 1010.7
20260506234553 69 65 2.0 11.0 0.00 0.00 0.00 77 1010.8
20260506234052 69 5 2.0 9.0 0.00 0.00 0.00 77 1010.5
20260506233553 69 360 2.0 9.0 0.00 0.00 0.00 77 1010.3
20260506233056 70 33 2.0 12.0 0.00 0.00 0.00 77 1010.4
20260506232552 70 29 2.0 13.0 0.00 0.00 0.00 76 1010.3
20260506232052 71 18 3.0 13.0 0.00 0.00 0.00 75 1010.3
20260506231555 72 16 3.0 13.0 0.00 0.00 0.00 75 1010.3
20260506231055 72 58 3.0 11.0 0.00 0.00 0.00 75 1010.2
20260506230556 73 80 3.0 13.0 0.00 0.00 0.00 74 1010.0
20260506230103 73 121 4.0 13.0 0.00 0.00 0.00 75 1010.1
20260506225549 73 24 3.0 11.0 0.00 0.00 0.00 75 1010.0
20260506225049 73 24 4.0 11.0 0.00 0.00 0.00 74 1009.9
20260506224556 74 19 3.0 11.0 0.00 0.00 0.00 75 1009.8
20260506224052 74 355 4.0 11.0 0.00 0.00 0.00 74 1009.9
20260506223552 75 15 3.0 12.0 0.00 0.00 0.00 74 1009.8
20260506223057 75 24 3.0 12.0 0.00 0.00 0.00 73 1009.6
20260506222553 76 355 4.0 12.0 0.00 0.00 0.00 72 1009.6
20260506222048 77 345 4.0 11.0 0.00 0.00 0.00 71 1009.5
20260506221558 77 45 3.0 11.0 0.00 0.00 0.00 72 1009.4
20260506221052 77 10 3.0 15.0 0.00 0.00 0.00 71 1009.4
20260506220553 78 52 3.0 15.0 0.00 0.00 0.00 73 1009.4
20260506220053 77 51 3.0 15.0 0.00 0.00 0.00 73 1009.2
20260506215557 77 32 4.0 11.0 0.00 0.00 0.00 73 1009.3
20260506215053 77 26 3.0 10.0 0.00 0.00 0.00 73 1009.4
20260506214551 77 331 3.0 10.0 0.00 0.00 0.00 72 1009.4
20260506214053 78 206 3.0 13.0 0.00 0.00 0.00 73 1009.4
20260506213552 79 82 4.0 13.0 0.00 0.00 0.00 72 1009.5
20260506213053 79 50 3.0 13.0 0.00 0.00 0.00 75 1009.4
20260506212555 78 24 4.0 12.0 0.00 0.00 0.00 74 1009.3
20260506212051 79 34 3.0 13.0 0.00 0.00 0.00 75 1009.2
20260506211555 79 38 3.0 13.0 0.00 0.00 0.00 74 1009.2
20260506211053 80 48 4.0 13.0 0.00 0.00 0.00 74 1009.2
20260506210553 79 352 2.0 9.0 0.00 0.00 0.00 76 1009.1
20260506210100 78 55 3.0 13.0 0.00 0.00 0.00 76 1009.2
20260506205553 78 42 4.0 13.0 0.00 0.00 0.00 76 1009.3
20260506205054 79 19 4.0 12.0 0.00 0.00 0.00 73 1009.3
20260506204554 82 38 2.0 9.0 0.00 0.00 0.00 73 1009.5
20260506204053 83 64 2.0 7.0 0.00 0.00 0.00 72 1009.2
20260506203552 84 63 2.0 7.0 0.00 0.00 0.00 71 1009.2
20260506203056 85 95 2.0 7.0 0.00 0.00 0.00 69 1009.2
20260506202553 85 59 0.0 3.0 0.00 0.00 0.00 71 1009.2
20260506202053 83 0 0.0 3.0 0.00 0.00 0.00 71 1009.4
20260506201622 83 0 0.0 5.0 0.00 0.00 0.00 72 1009.3
20260506201052 82 55 1.0 5.0 0.00 0.00 0.00 71 1009.6
20260506200552 82 0 0.0 4.0 0.00 0.00 0.00 72 1009.6
20260506200055 83 0 1.0 5.0 0.00 0.00 0.00 72 1009.7
20260506195553 83 88 1.0 5.0 0.00 0.00 0.00 73 1009.7
20260506195054 83 79 1.0 5.0 0.00 0.00 0.00 73 1009.6